Regional Weather Roundup
Issued by NWS

Home | Current Version | Previous Version | Text Only | Print | Product List | Glossary Off
Versions: 1 2 3 4 5 6 7 8 9 10 11 12 13 14 15 16 17 18 19 20 21 22 23 24 25 26 27 28 29 30 31 32 33 34 35 36 37 38 39 40 41 42 43 44 45 46 47 48 49 50

000
ASUS43 KLOT 231400
RWRIL

ILLINOIS REGIONAL WEATHER ROUNDUP
NATIONAL WEATHER SERVICE CHICAGO/ROMEOVILLE IL
900 AM CDT TUE SEP 23 2014

NOTE: "FAIR" INDICATES FEW OR NO CLOUDS BELOW 12,000 FEET WITH NO
SIGNIFICANT WEATHER AND/OR OBSTRUCTIONS TO VISIBILITY.

* THESE STATIONS ARE NOT UNDER NWS QUALITY CONTROL. THEY ALSO MAY NOT
  REPORT WEATHER SUCH AS PRECIPITATION OR FOG.

ILZ001-002-007-009-015-016-024-231500-
NORTHWEST ILLINOIS

CITY           SKY/WX    TMP DP  RH WIND       PRES   REMARKS
MOLINE         SUNNY     58  48  69 CALM      30.32R
STERLING*      SUNNY     57  48  72 CALM      30.34R
$$

ILZ003-004-008-010-011-017-018-231500-
NORTH CENTRAL ILLINOIS

CITY           SKY/WX    TMP DP  RH WIND       PRES   REMARKS
ROCKFORD       MOSUNNY   55  48  77 S3        30.36R
ROCHELLE*        N/A    N/A N/A N/A S5        30.34R
$$

ILZ005-006-012>014-019>023-231500-
NORTHEAST ILLINOIS

CITY           SKY/WX    TMP DP  RH WIND       PRES   REMARKS
CHICAGO-OHARE  SUNNY     56  45  66 W8        30.34R
CHICAGO-MIDWAY SUNNY     60  47  61 SW6       30.34R
AURORA         SUNNY     56  47  71 SW6       30.35R
LANSING*       SUNNY     56  47  73 CALM      30.35R
WAUKEGAN       SUNNY     57  48  72 SW6       30.32R
DUPAGE AIRPORT SUNNY     58  47  66 SW7       30.34R
WHEELING       SUNNY     60  46  59 SW6       30.35R
NORTHERLY ISL    N/A     60  43  53 W8          N/A
$$

LMZ740>746-231500-
SOUTHERN LAKE MICHIGAN

STATION/POSITION SKY/WX   TEMP    WIND        PRES    VSBY  WAVE
                          AIR SEA DIR/SP/G                  HT/PER
                          (F)     (DEG/KT/KT) (MB)    (MI)  (FT/S)
SOUTHERN BUOY              60 62  240/ 10/ 12 1026.4R         2/ 4
WAUKEGAN HARBOR            57     270/  9/ 15   N/A
BURNHAM HARBOR             59     260/  6/ 11   N/A
CALUMET HARBOR             56     220/  4/  6 1026.0R
MICHIGAN CITY 6N           57 63  220/  6/  8   N/A           1/ 3
ST. JOSEPH                 59 64  200/  8/ 12   N/A           1/ 3
$$

ILZ025>027-034>036-040-047-049-050-058-095>099-231500-
WEST-CENTRAL ILLINOIS

CITY           SKY/WX    TMP DP  RH WIND       PRES   REMARKS
QUINCY         MOSUNNY   60  48  64 SE6       30.31R
GALESBURG*     SUNNY    N/A N/A N/A SE5       30.33R
MACOMB*        SUNNY     54  49  82 CALM      30.35R
$$

ILZ028>032-037-038-041>044-048-051>054-059>061-231500-
CENTRAL ILLINOIS

CITY           SKY/WX    TMP DP  RH WIND       PRES   REMARKS
DECATUR        SUNNY     57  49  74 CALM      30.35R
PEORIA         SUNNY     58  48  69 S5        30.34R
SPRINGFIELD    SUNNY     59  50  72 S3        30.34R
TAYLORVILLE    NOT AVBL
$$

ILZ033-039-045-046-055>057-062-063-231500-
EAST-CENTRAL ILLINOIS

CITY           SKY/WX    TMP DP  RH WIND       PRES   REMARKS
CHAMPAIGN      SUNNY     57  52  83 CALM      30.35R
MATTOON        SUNNY     56  49  77 SE6       30.34R
$$

ILZ079-100>102-231500-
SOUTHWEST ILLINOIS

CITY           SKY/WX    TMP DP  RH WIND       PRES   REMARKS
BELLEVILLE     SUNNY     56  52  86 VRB1      30.32R
CAHOKIA*       SUNNY     59  52  77 CALM      30.32S
SPARTA*        SUNNY     56  50  80 CALM      30.33S
$$

ILZ064>066-069>071-074>076-080>082-084>086-088>090-092>094-231500-
SOUTH-CENTRAL ILLINOIS

CITY           SKY/WX    TMP DP  RH WIND       PRES   REMARKS
CARBONDALE     MOSUNNY   54  50  86 CALM      30.32R
MT. VERNON     SUNNY     55  48  76 CALM      30.33S
$$

ILZ067-068-072-073-078-083-087-091-231500-
SOUTHEAST ILLINOIS

CITY           SKY/WX    TMP DP  RH WIND       PRES   REMARKS
LAWRENCEVILLE  SUNNY     56  51  84 E5        30.35R
HARRISBURG*    SUNNY     56  54  91 CALM      30.33R
ROBINSON*      SUNNY     55  54  99 CALM      30.35S
$$

ABBREVIATIONS USED IN REMARKS
   TC - TEMPERATURE IN CELSIUS
  WCI - WIND CHILL INDEX
   HX - HEAT INDEX
  VSB - VISIBILITY
$$



USA.gov is the U.S. government's official web portal to all federal, state and local government web resources and services.